Regional Weather Roundup
Issued by NWS

Home | Current Version | Previous Version | Text Only | Print | Product List | Glossary On
Versions: 1 2 3 4 5 6 7 8 9 10 11 12 13 14 15 16 17 18 19 20 21 22 23 24 25 26 27 28 29 30 31 32 33 34 35 36 37 38 39 40 41 42 43 44 45 46 47 48 49 50
501
ASUS44 KOUN 312210
RWROK

WEATHER ROUNDUP FOR OKLAHOMA
NATIONAL WEATHER SERVICE NORMAN OK
500 PM CDT TUE MAY 31 2016

NOTE: "FAIR" INDICATES FEW OR NO CLOUDS BELOW 12,000 FEET WITH NO
      SIGNIFICANT WEATHER AND/OR OBSTRUCTIONS TO VISIBILITY.

OKZ001>007-009>012-014-015-017-312300-
NORTHWEST OKLAHOMA AND THE PANHANDLE

CITY           SKY/WX    TMP DP  RH WIND       PRES   REMARKS
GAGE           MOSUNNY   75  59  57 N12       29.93F
GUYMON         PTSUNNY   74  54  49 E12       29.95F
ENID/WOODRING  PTSUNNY   84  63  48 N5        29.84F
$$

OKZ016-021>023-033>039-044-045-312300-
SOUTHWEST OKLAHOMA

CITY           SKY/WX    TMP DP  RH WIND       PRES   REMARKS
LAWTON/REGL    CLOUDY    83  68  60 S5        29.84F
LAWTON/FT SILL CLOUDY    82  69  62 E5        29.83F
FREDERICK      MOSUNNY   83  66  56 S13       29.81F
CLINTON        CLOUDY    82  57  42 NE10      29.90S
HOBART         LGT RAIN  84  61  45 VRB7      29.86F
ALTUS AFB      CLOUDY    71  64  79 SE12      29.85S THUNDER
$$

OKZ018>020-024>031-312300-
CENTRAL OKLAHOMA

CITY           SKY/WX    TMP DP  RH WIND       PRES   REMARKS
OKLAHOMA CITY  CLOUDY    74  69  85 S14G20    29.85S THUNDER
OKC/WILEY POST PTSUNNY   81  66  60 N9        29.84F
OKC/TINKER AFB CLOUDY    75  68  78 SE7       29.83F THUNDER
STILLWATER     CLOUDY    81  66  60 SE8       29.85F
GUTHRIE        MOSUNNY   82  67  60 E8        29.84F
$$

OKZ008-013-054>072-312300-
NORTHEAST OKLAHOMA

CITY           SKY/WX    TMP DP  RH WIND       PRES   REMARKS
TULSA          CLOUDY    81  69  67 E8        29.83F
TULSA/JONES    CLOUDY    81  64  56 SE7       29.84F
PONCA CITY     SUNNY     81  65  58 SE6       29.84F
BARTLESVILLE   SUNNY     81  65  58 CALM      29.86F
MUSKOGEE       CLOUDY    77  65  66 SE3       29.87R
$$

OKZ032-040>043-046>053-073>077-312300-
SOUTH CENTRAL/SOUTHEAST OKLAHOMA

CITY           SKY/WX    TMP DP  RH WIND       PRES   REMARKS
ARDMORE/DWNTWN CLOUDY    70  68  94 SE5       29.86R
MCALESTER      LGT RAIN  70  65  84 SW7       29.86S
$$





USA.gov is the U.S. government's official web portal to all federal, state and local government web resources and services.